Wind_Speed
12 13 15 15 16 16 17 17 18 20 20 21 20 18 17 18 21 24 28 31 33 35 37 38 41 42 45 45 44 41 39 38 38 37 36 30 23 18 17 21 26 26 24 23
9 10 11 12 14 14 15 16 17 18 19 20 21 20 21 22 25 28 30 32 34 37 39 41 43 44 45 44 41 38 37 37 38 37 35 31 27 23 18 17 17 19 21 21
7 8 9 10 11 12 12 13 13 14 16 18 20 20 21 24 27 30 32 34 36 37 38 39 41 41 40 39 39 39 39 39 39 38 37 34 31 28 24 20 19 20 21 21
6 5 6 7 9 9 7 8 8 9 11 13 15 16 18 22 25 27 28 29 30 30 30 32 32 34 35 37 39 41 41 41 40 39 38 35 32 30 27 25 23 23 23 24
3 2 3 4 5 5 4 5 6 7 8 9 11 14 16 19 21 22 23 24 25 27 28 29 31 33 35 37 39 41 43 43 43 42 40 39 37 34 32 30 29 29 28 28
3 1 1 2 4 5 5 5 7 8 8 10 12 14 16 18 20 22 24 26 28 30 31 33 34 36 37 39 41 43 44 44 45 44 43 42 41 39 38 36 35 35 35 35
3 1 1 4 6 7 8 8 9 10 10 11 13 14 16 18 21 24 27 29 31 33 35 36 36 37 38 40 41 41 42 43 43 44 44 44 44 44 43 42 41 41 41 42
2 1 4 6 8 9 10 12 13 15 14 14 15 17 19 22 24 27 30 32 34 35 37 37 38 39 40 40 41 42 42 42 43 44 45 46 47 48 48 48 48 47 47 48
4 4 6 8 9 10 12 13 15 16 16 17 18 20 23 25 28 31 33 35 36 37 38 40 41 43 44 44 45 46 45 44 43 43 44 45 47 48 50 52 53 54 54 54
7 7 8 9 11 13 14 15 17 17 19 20 22 24 26 29 31 33 35 36 37 39 41 43 45 47 48 49 49 47 44 42 41 42 43 44 45 46 47 48 51 55 58 59
10 11 11 12 13 13 14 15 17 18 20 23 26 28 29 31 33 34 36 38 40 42 45 47 50 52 52 51 49 48 47 48 49 49 50 51 52 52 52 52 52 52 54 58
13 14 13 12 11 11 13 15 17 19 22 25 28 29 31 32 33 35 37 40 43 46 48 50 52 52 50 49 48 49 51 54 56 58 59 61 61 60 58 56 55 55 55 55
14 14 13 12 11 11 13 15 18 20 23 26 29 30 31 32 34 36 39 43 45 48 49 52 51 49 47 47 48 51 54 57 60 63 65 66 65 64 62 59 56 55 54 54
15 15 13 11 10 11 12 15 19 23 26 28 29 29 29 31 34 37 41 43 46 48 51 51 48 46 45 46 49 53 57 60 63 66 67 67 67 66 64 60 57 54 53 52
16 16 14 12 11 13 16 19 22 26 28 29 29 29 30 32 36 40 43 45 47 49 50 49 46 44 45 47 51 55 59 63 65 66 66 66 66 65 62 59 55 53 52 51
18 18 16 14 14 16 19 22 25 28 29 29 29 30 32 35 40 43 45 47 49 51 50 46 43 43 45 49 53 58 62 64 66 65 64 63 62 62 60 56 52 49 48 48
18 18 17 15 16 17 21 24 27 28 30 31 32 33 35 36 41 45 46 48 51 52 48 44 43 44 47 51 56 60 64 65 63 62 62 62 61 58 55 51 48 45 43 44
17 17 17 17 18 21 24 26 28 30 31 33 34 36 38 39 42 45 48 50 52 51 46 43 44 46 49 53 57 61 64 63 61 60 61 61 58 53 48 44 41 40 39 40
17 18 19 20 21 23 26 28 30 32 32 34 36 38 40 41 42 43 45 48 50 50 46 45 46 48 51 54 58 61 62 60 59 60 60 59 54 48 42 38 35 34 35 36
16 18 20 22 23 25 26 28 31 33 34 36 38 41 43 44 45 44 46 49 51 51 48 46 47 49 51 55 58 61 60 58 57 58 59 55 50 43 37 32 28 28 30 32
17 19 21 23 23 23 24 28 31 33 35 37 40 42 44 46 48 49 49 51 53 52 48 46 47 48 51 55 58 60 58 56 57 57 57 52 45 38 32 26 22 22 25 28
20 22 23 23 22 23 25 28 31 32 34 37 40 42 44 45 47 49 49 51 52 51 48 46 46 48 51 55 58 59 57 55 56 55 54 50 43 35 28 22 18 16 19 24
22 23 24 22 22 24 26 29 31 32 35 38 40 43 44 45 47 49 49 51 52 51 48 46 45 47 50 54 58 58 56 55 55 54 52 48 42 34 26 20 14 11 14 19
21 22 22 22 23 25 27 29 31 33 36 39 41 43 45 46 48 49 50 50 51 51 48 45 45 46 49 53 56 56 55 54 54 53 51 47 41 34 27 20 13 8 7 13
20 19 20 22 24 26 28 30 32 35 37 39 41 43 45 46 47 49 49 50 50 50 48 46 44 45 48 51 53 54 54 52 52 52 50 46 41 35 28 21 14 8 4 6
19 20 21 23 25 27 29 31 33 35 37 39 41 43 44 45 47 48 49 49 50 49 48 45 44 44 46 49 51 52 52 51 50 50 49 45 41 36 30 22 15 9 4 2
Wind_Direction
271 273 277 279 277 273 272 272 271 271 271 270 270 274 273 268 266 269 274 279 282 284 286 289 292 295 298 300 302 304 305 309 314 319 325 326 312 292 268 251 246 240 239 237
280 285 281 279 278 277 278 281 282 281 280 278 276 274 276 276 275 277 279 282 285 286 286 288 289 291 293 296 298 301 304 308 313 317 322 323 323 319 303 285 268 256 250 246
283 277 266 263 268 278 283 288 293 293 289 286 285 283 281 280 281 282 284 286 288 289 288 287 289 290 291 293 295 298 302 305 308 311 314 315 315 313 309 300 283 272 262 255
268 260 254 255 264 273 281 299 307 303 299 296 292 292 291 289 289 289 291 294 295 296 295 295 295 294 294 295 296 298 299 301 302 304 304 304 303 300 296 290 284 277 270 262
297 255 234 257 273 286 305 335 344 338 321 309 303 297 293 291 293 297 299 304 305 303 302 303 302 301 299 298 298 298 299 299 299 299 298 296 293 290 285 280 274 271 268 263
27 115 151 292 304 309 332 344 348 341 328 311 306 298 293 293 297 301 303 305 307 307 307 307 305 303 301 299 298 298 298 297 297 295 293 291 288 284 279 274 269 264 261 259
71 110 271 305 309 314 314 317 317 314 306 302 305 304 302 303 303 304 305 308 309 309 308 306 305 303 302 300 299 298 297 296 295 293 291 289 285 282 277 272 267 262 259 256
75 291 296 303 308 311 314 315 317 317 313 309 308 308 307 308 307 308 309 311 312 312 311 310 309 308 306 304 303 301 299 297 295 293 290 288 285 281 277 273 268 263 259 255
9 339 325 320 321 318 321 320 320 318 317 313 311 308 308 309 308 310 312 314 315 316 315 314 312 311 309 308 306 305 304 302 300 297 294 290 287 283 279 274 269 264 259 255
352 338 332 325 322 322 320 320 320 319 318 315 312 310 311 309 310 313 315 317 318 318 317 316 315 314 314 313 312 312 312 311 310 307 304 300 296 291 286 280 273 267 261 256
349 338 329 321 318 316 315 316 318 318 317 315 314 314 314 313 315 317 319 320 320 320 320 319 319 318 317 316 316 316 316 315 313 310 308 304 300 296 292 286 279 272 266 260
352 344 338 332 326 324 322 323 322 321 319 318 318 316 317 317 319 320 322 322 323 323 323 322 321 319 318 318 317 316 316 315 314 312 309 306 302 298 294 288 281 275 268 263
355 352 349 347 342 335 329 326 325 326 326 325 322 321 321 321 323 324 324 325 325 324 323 322 321 319 318 317 317 317 316 315 313 311 309 305 302 299 295 288 280 273 268 263
353 352 349 346 344 337 331 331 333 335 334 331 329 326 325 325 326 325 325 325 325 325 324 323 322 319 318 318 318 318 317 315 312 310 308 305 303 300 295 289 281 272 265 260
342 342 340 337 338 338 338 337 338 340 338 335 333 331 330 329 327 327 327 328 328 327 327 325 322 320 319 319 320 319 317 315 313 311 309 306 304 301 296 290 282 273 264 257
329 327 326 326 332 338 338 338 339 341 339 337 336 336 335 333 332 331 331 330 330 330 329 326 324 322 322 322 321 321 319 318 315 313 312 309 306 302 297 291 282 273 263 255
317 317 318 322 328 333 335 337 338 340 339 340 340 339 338 337 336 332 332 333 333 333 331 328 327 326 325 325 324 324 323 321 319 317 316 313 309 303 297 290 282 273 262 254
308 309 313 321 329 335 334 334 336 340 341 341 340 340 341 341 339 335 335 335 335 334 333 331 330 330 329 328 328 327 326 324 322 321 321 318 314 307 299 290 282 271 260 252
304 309 315 324 330 332 332 332 334 339 342 341 341 342 342 341 341 338 336 336 336 337 336 335 334 333 332 332 332 331 330 328 326 326 325 323 318 312 304 294 281 270 257 247
305 311 317 323 328 329 329 331 334 338 340 341 342 343 342 342 342 341 340 340 341 341 339 338 336 335 335 335 335 335 335 332 331 331 331 328 324 319 311 300 285 269 254 243
314 316 318 320 324 325 327 331 336 336 338 340 341 342 343 343 343 343 343 343 343 343 341 339 337 336 337 338 339 340 340 338 337 337 337 336 332 327 321 308 290 270 250 240
316 315 316 320 324 326 329 332 333 334 335 338 340 342 343 344 344 345 344 343 344 344 342 340 339 339 340 342 343 345 345 344 344 344 344 344 342 337 332 320 301 276 249 236
312 313 316 322 325 325 328 329 330 331 333 336 338 341 343 345 346 346 346 345 344 345 344 342 341 342 343 344 346 349 349 349 350 350 350 351 350 347 344 338 323 289 250 231
310 314 318 320 321 322 324 326 329 331 333 334 337 340 343 345 347 348 347 345 345 346 345 344 343 344 345 347 349 352 353 354 355 356 356 357 358 358 355 352 345 321 262 232
313 318 320 320 320 322 323 326 329 331 332 333 337 340 343 345 346 347 347 346 346 346 347 345 345 345 347 349 351 354 356 357 358 360 1 3 4 5 4 3 0 352 307 234
314 319 321 322 323 324 326 328 330 330 330 333 337 340 343 344 345 346 347 347 347 347 347 347 346 346 348 351 353 355 358 359 360 2 4 5 7 10 10 11 12 12 5 211
Height
5861 5863 5862 5862 5862 5861 5860 5860 5859 5859 5858 5858 5857 5857 5857 5856 5856 5855 5853 5852 5850 5848 5846 5843 5841 5838 5834 5831 5828 5825 5821 5816 5811 5805 5799 5794 5790 5787 5786 5788 5790 5792 5794 5795
5860 5860 5860 5859 5859 5859 5858 5858 5857 5856 5855 5855 5854 5854 5854 5853 5851 5850 5848 5846 5844 5842 5839 5837 5834 5831 5827 5824 5821 5818 5814 5810 5806 5801 5797 5794 5791 5789 5788 5787 5788 5789 5789 5790
5857 5858 5857 5857 5857 5857 5857 5856 5855 5853 5852 5851 5851 5851 5850 5848 5846 5844 5842 5840 5837 5834 5831 5828 5825 5822 5818 5816 5813 5811 5808 5804 5800 5796 5793 5791 5789 5788 5787 5786 5785 5785 5785 5785
5854 5854 5855 5855 5855 5855 5855 5854 5853 5851 5850 5849 5849 5847 5846 5843 5841 5839 5836 5833 5830 5826 5822 5819 5816 5813 5811 5808 5805 5802 5800 5797 5794 5791 5788 5786 5785 5784 5783 5782 5781 5781 5780 5780
5852 5853 5853 5854 5854 5854 5853 5853 5852 5850 5849 5848 5846 5845 5843 5839 5837 5834 5830 5827 5824 5820 5817 5813 5810 5807 5804 5800 5797 5794 5790 5787 5784 5782 5780 5778 5777 5776 5775 5774 5774 5773 5773 5773
5852 5852 5853 5853 5853 5853 5852 5852 5851 5849 5848 5847 5845 5843 5840 5836 5833 5829 5826 5823 5819 5815 5811 5808 5804 5800 5796 5792 5788 5785 5781 5777 5773 5770 5768 5766 5765 5764 5764 5764 5763 5763 5763 5763
5853 5853 5852 5852 5852 5852 5851 5851 5850 5848 5846 5845 5843 5840 5838 5833 5829 5826 5822 5818 5814 5810 5805 5800 5796 5792 5787 5783 5778 5774 5770 5766 5762 5758 5754 5752 5750 5749 5749 5749 5749 5749 5750 5750
5853 5853 5852 5851 5851 5850 5849 5848 5847 5845 5843 5841 5839 5836 5834 5829 5825 5821 5817 5812 5807 5802 5797 5791 5786 5781 5777 5772 5767 5763 5758 5754 5749 5745 5741 5738 5735 5733 5732 5731 5732 5733 5734 5735
5853 5853 5851 5850 5849 5849 5847 5845 5843 5841 5839 5837 5835 5832 5828 5824 5820 5815 5811 5806 5800 5795 5789 5783 5777 5771 5765 5759 5754 5749 5744 5739 5735 5730 5726 5723 5719 5717 5715 5713 5712 5713 5714 5715
5853 5852 5851 5849 5848 5846 5844 5842 5840 5838 5835 5832 5830 5827 5824 5819 5814 5809 5804 5798 5793 5786 5780 5772 5765 5758 5750 5743 5737 5731 5726 5722 5718 5714 5710 5706 5702 5699 5696 5694 5692 5691 5692 5694
5852 5851 5849 5847 5845 5843 5841 5839 5837 5834 5831 5829 5825 5823 5817 5812 5807 5802 5796 5790 5783 5776 5768 5760 5752 5744 5735 5728 5721 5715 5709 5704 5700 5695 5691 5687 5683 5679 5675 5673 5671 5670 5669 5670
5851 5849 5846 5844 5842 5840 5838 5836 5834 5832 5829 5824 5820 5819 5810 5805 5800 5794 5788 5781 5774 5766 5757 5749 5740 5732 5724 5716 5709 5702 5695 5688 5682 5676 5670 5664 5659 5655 5651 5648 5646 5645 5645 5646
5850 5847 5845 5843 5842 5839 5836 5833 5831 5829 5825 5820 5815 5813 5805 5799 5794 5787 5780 5773 5766 5758 5749 5741 5731 5722 5714 5706 5698 5691 5683 5674 5666 5657 5649 5642 5635 5630 5626 5623 5621 5620 5620 5621
5849 5847 5845 5843 5840 5837 5835 5832 5829 5826 5821 5816 5811 5806 5801 5795 5789 5782 5775 5767 5759 5750 5741 5731 5722 5713 5705 5696 5688 5680 5671 5660 5650 5639 5629 5620 5611 5604 5600 5597 5596 5595 5596 5598
5848 5846 5844 5841 5839 5836 5833 5830 5826 5822 5817 5812 5807 5801 5796 5789 5782 5775 5767 5759 5751 5741 5732 5722 5712 5704 5696 5688 5679 5669 5658 5646 5634 5622 5610 5599 5589 5580 5574 5571 5570 5570 5572 5574
5846 5844 5842 5840 5837 5833 5830 5826 5823 5818 5813 5808 5802 5797 5791 5783 5774 5766 5758 5750 5741 5732 5722 5712 5703 5695 5687 5677 5668 5656 5644 5631 5617 5604 5592 5579 5568 5558 5551 5546 5545 5546 5549 5552
5844 5842 5840 5837 5834 5832 5828 5824 5819 5815 5810 5804 5797 5793 5786 5779 5769 5759 5751 5743 5732 5722 5712 5703 5695 5686 5677 5667 5656 5643 5630 5615 5601 5587 5574 5561 5548 5537 5529 5524 5522 5524 5527 5531
5843 5840 5837 5834 5832 5827 5826 5820 5815 5811 5806 5799 5793 5786 5779 5772 5764 5753 5743 5733 5724 5714 5705 5695 5686 5677 5667 5656 5644 5630 5616 5600 5586 5572 5557 5542 5529 5517 5509 5505 5503 5504 5507 5512
5840 5837 5834 5831 5827 5824 5821 5816 5810 5806 5801 5795 5788 5781 5773 5766 5760 5750 5740 5729 5718 5707 5696 5686 5677 5667 5658 5646 5633 5619 5604 5588 5573 5558 5543 5526 5511 5500 5493 5488 5486 5487 5490 5496
5837 5834 5831 5827 5823 5820 5818 5812 5807 5802 5796 5790 5783 5775 5767 5759 5751 5744 5733 5722 5710 5699 5688 5679 5669 5660 5649 5638 5624 5609 5593 5578 5563 5547 5530 5513 5498 5487 5480 5475 5473 5473 5477 5482
5833 5830 5826 5823 5820 5818 5814 5809 5803 5798 5793 5785 5778 5771 5762 5752 5743 5733 5723 5713 5702 5692 5682 5673 5663 5653 5642 5630 5616 5600 5584 5569 5553 5537 5520 5503 5489 5479 5471 5466 5464 5464 5467 5472
5828 5825 5822 5819 5816 5815 5809 5804 5800 5795 5788 5781 5774 5766 5758 5749 5739 5729 5718 5708 5697 5687 5677 5667 5658 5647 5635 5623 5609 5593 5577 5562 5546 5530 5513 5497 5484 5473 5465 5460 5458 5457 5459 5464
5825 5822 5818 5816 5814 5810 5805 5800 5795 5790 5783 5777 5769 5762 5753 5744 5734 5724 5713 5703 5693 5682 5672 5662 5652 5641 5630 5617 5603 5588 5572 5557 5542 5526 5510 5495 5482 5471 5463 5458 5455 5454 5455 5459
5821 5818 5814 5811 5808 5805 5801 5796 5791 5784 5778 5771 5764 5756 5747 5738 5728 5718 5709 5699 5689 5678 5668 5658 5647 5637 5625 5613 5599 5584 5569 5554 5539 5524 5509 5495 5483 5472 5464 5459 5455 5454 5454 5457
5817 5813 5810 5807 5804 5800 5796 5791 5785 5779 5773 5766 5758 5750 5742 5733 5724 5714 5705 5695 5685 5675 5664 5653 5643 5633 5622 5610 5596 5582 5567 5553 5539 5525 5511 5498 5486 5475 5467 5461 5457 5456 5455 5456
5812 5809 5806 5803 5799 5795 5791 5785 5780 5774 5768 5761 5753 5746 5737 5728 5720 5711 5701 5691 5681 5671 5661 5650 5640 5629 5619 5607 5595 5581 5567 5554 5540 5528 5515 5502 5491 5480 5472 5465 5461 5459 5458 5458